Find Starlink 33767

NORAD ID: 63722 Int'l Des: 2025-087 Owner: SPXS Country: US Constellation: starlink operational
LEOCIRCULAR

リアルタイム位置

3D地球を読み込み中...

Starlink 33767について

説明を読み込み中...

次回通過

Passes for default location (London). Set your location on the main map for personalized predictions.

高度履歴

Loading altitude history...

軌道要素

1 63722U 25087AB 26104.56267492 .00010057 00000-0 35119-3 0 9991
2 63722 53.1610 52.8002 0000815 104.6222 255.4870 15.30203520 54692
Epoch: Apr 14, 2026 • Age: 7 hours

現在のステータス

高度 493.7 km
速度 7.62 km/s
衛星直下点 -52.02°S, 147.41°E
打ち上げ日 Apr 28, 2025
運用期間 0.9 years
タイプ internet

技術仕様

分類 Payload
質量 575.00 kg
乾燥質量 530.00 kg
総質量 575.00 kg
長さ 0.30 m
直径 4.10 m
スパン 29.00 m
形状 Box + pan
製造者 SPXS
バスタイプ Starlink V2MO
フェーズステータス In Orbit
所有者/国 SPXS/US

Most Searched